Regional Weather Roundup
Issued by NWS Cleveland, OH

Home | Current Version | Previous Version | Text Only | Print | Product List | Glossary Off
Versions: 1 2 3 4 5 6 7 8 9 10 11 12 13 14 15 16 17 18 19 20 21 22 23 24 25 26 27 28 29 30 31 32 33 34 35 36 37 38 39 40 41 42 43 44 45 46 47 48 49 50

000
ASUS41 KCLE 301210
RWRCLE
OHIO REGIONAL WEATHER ROUNDUP
NATIONAL WEATHER SERVICE CLEVELAND, OH
800 AM EDT SUN APR 30 2017

NOTE: "FAIR" INDICATES FEW OR NO CLOUDS BELOW 12,000 FEET WITH NO
SIGNIFICANT WEATHER AND/OR OBSTRUCTIONS TO VISIBILITY.

OHZ001>008-015>018-024>027-034-035-043-044-301300-
   NORTHWEST OHIO

CITY           SKY/WX    TMP DP  RH WIND       PRES   REMARKS
DEFIANCE       CLOUDY    47  45  93 NE7       29.97S FOG
FINDLAY        FOG       51  48  89 E8        29.94F VSB 1/4
TOLEDO EXPRESS CLOUDY    48  47  96 E14G20    29.97S
TOLEDO EXEC    CLOUDY    50  48  93 E9        29.98F
LIMA           CLOUDY    54  54 100 SE12      29.92F FOG
$$

OHZ009>014-019>023-028>033-038-089-301300-
   NORTHEAST OHIO

CITY           SKY/WX    TMP DP  RH WIND       PRES   REMARKS
CLE-HOPKINS    PTSUNNY   53  46  77 E8        30.02F
CLE-LAKEFRONT  CLOUDY    51  46  83 NE6       30.00F
CUY CO. ARPT   MOSUNNY   52  48  87 SE6       30.02F
LORAIN-ELYRIA  MOSUNNY   50  45  83 E6        30.01F
ASHTABULA      PTSUNNY   47  42  83 E7        30.07S
AKRON-CANTON   PTSUNNY   58  54  86 SE5       30.02S
WOOSTER        CLOUDY    56  54  93 SE7       30.02F FOG
MANSFIELD      FOG       56  56 100 SE10      30.00R VSB 1/4
YOUNGSTOWN     PTSUNNY   56  53  90 E5        30.06S
$$

OHZ042-051>053-060>062-070>072-077>081-301300-
  SOUTHWEST OHIO

CITY           SKY/WX    TMP DP  RH WIND       PRES   REMARKS
CINC-COVINGTON CLOUDY    71  65  81 S9        29.92R
CINC-LUNKEN    CLOUDY    64  64 100 CALM      29.93S FOG
HAMILTON       CLOUDY    62  61  96 CALM      29.93S FOG
DAYTON         FOG       60  60 100 SE10      29.94R VSB 1
WRIGHT-PAT AFB CLOUDY    61  61 100 CALM      29.94F FOG
DAYTON GENERAL CLOUDY    63  62  97 SE7       29.93F FOG
WILMINGTON     CLOUDY    62  62 100 E5        29.95F FOG
$$

OHZ036-037-039>041-045>050-054>059-063>069-073>076-082>088-301300-
  CENTRAL AND SOUTHEAST OHIO

CITY           SKY/WX    TMP DP  RH WIND       PRES   REMARKS
COLUMBUS       MOSUNNY   61  61 100 E6        29.98S FOG
OSU AIRPORT    FOG       59  59 100 SE6       29.97S VSB 1/2
BOLTON FIELD   FOG       59  59 100 SE5       29.98S VSB 1/4
RICKENBACK AFB FOG       60  60 100 E5        29.98S VSB 1
NEWARK         FOG       59  58  96 CALM      30.00S VSB 1/4
MARION         MOSUNNY   58  56  93 SE8       29.98S FOG
LANCASTER      SUNNY     63  61  93 CALM      30.00S FOG
ZANESVILLE     FOG       61  60  97 CALM      30.01S VSB 1/4
NEW PHILLY     NOT AVBL
$$




USA.gov is the U.S. government's official web portal to all federal, state and local government web resources and services.